SCP
0 0 0 0 0 0 0 0 0 0 0 0 0 0 0 0 0 0 0 0 0 0 0 0 0 0 0 0 0 0 0 0 0 0 0 0 0 0 0 0 0 0 0 0
0 0 0 0 0 0 0 0 0 0 0 0 0 0 0 0 0 0 0 0 0 0 0 0 0 0 0 0 0 0 0 0 0 0 0 0 0 0 0 0 0 0 0 0
0 0 0 0 0 0 0 0 0 0 0 0 0 0 0 0 0 0 0 0 0 0 0 0 0 0 0 0 0 0 0 0 0 0 0 0 0 0 0 0 0 0 0 0
0 0 0 0 0 0 0 0 0 0 0 0 0 0 0 0 0 0 0 0 0 0 0 0 0 0 0 0 0 0 0 0 0 0 0 0 0 0 0 0 0 0 0 0
0 0 0 0 0 0 0 0 0 0 0 0 0 0 0 0 0 0 0 0 0 0 0 0 0 0 0 0 0 0 0 0 0 1 1 1 0 0 0 0 0 0 0 0
0 0 0 0 0 0 0 0 0 0 0 0 0 0 0 0 0 0 0 0 0 0 0 0 0 0 0 0 1 1 1 1 1 1 1 1 1 0 0 0 0 0 0 0
0 0 0 0 0 0 0 0 0 0 0 0 0 0 0 0 0 0 0 0 0 0 0 0 1 1 1 1 1 1 1 1 1 1 1 1 1 1 0 0 0 0 0 0
0 0 0 0 0 0 0 0 0 0 0 0 0 0 0 0 0 0 0 0 1 1 1 1 1 1 1 1 1 1 1 1 1 1 1 1 1 1 1 0 0 0 0 0
0 0 0 0 0 0 0 0 0 0 0 0 0 0 0 0 0 0 0 0 1 1 1 1 1 1 1 1 1 1 1 1 1 1 1 1 1 1 1 1 1 0 0 0
0 0 0 0 0 0 0 0 0 0 0 0 0 0 0 0 0 0 0 1 1 1 1 1 1 1 1 1 1 1 1 1 1 1 1 1 1 1 1 1 1 1 1 1
0 0 0 0 0 0 0 0 0 0 0 0 0 0 0 0 0 0 0 1 1 1 1 1 1 1 1 1 1 1 1 1 1 1 1 1 1 1 1 1 1 1 1 1
0 0 0 0 0 0 0 0 0 0 0 0 0 0 0 0 0 0 0 1 1 1 1 1 1 1 1 1 1 1 1 1 1 1 1 1 1 1 1 1 1 1 1 1
0 0 0 0 0 0 0 0 0 0 0 0 0 0 0 0 0 1 1 1 1 1 1 1 1 1 1 1 1 1 1 1 1 1 1 1 1 1 1 1 1 1 1 1
0 0 0 0 0 0 0 0 0 0 0 0 0 0 0 0 1 1 1 1 1 1 1 2 1 1 1 1 1 1 1 1 1 1 1 1 1 1 1 1 1 1 1 1
0 0 0 0 0 0 0 0 0 0 0 0 0 0 0 0 1 1 1 1 1 1 2 2 2 2 1 1 1 1 1 1 1 1 1 1 1 1 1 1 1 1 1 1
0 0 0 0 0 0 0 0 0 0 0 0 0 1 1 1 1 1 1 1 1 2 2 2 2 2 2 1 1 1 1 1 1 1 1 1 1 1 1 1 1 1 1 0
0 0 0 0 0 0 0 0 0 0 0 0 0 1 1 1 1 1 1 1 2 2 2 2 2 2 2 1 1 1 1 1 1 1 1 1 1 1 1 1 1 1 0 0
0 0 0 0 0 0 0 0 0 0 0 0 0 1 1 1 1 1 1 2 2 2 2 2 2 2 1 1 1 1 1 1 1 1 1 1 1 1 1 1 0 0 0 0
0 0 0 0 0 0 0 0 0 0 0 0 1 1 1 1 2 2 2 2 2 2 2 2 2 2 1 1 1 1 1 1 1 1 1 1 1 1 1 1 0 0 0 0
0 0 0 0 0 0 0 0 0 0 0 0 1 1 1 1 2 2 2 2 3 3 3 2 2 2 1 1 1 1 1 1 1 1 1 1 1 1 1 0 0 0 0 0
0 0 0 0 0 0 0 0 0 0 0 0 1 1 1 1 1 2 2 2 3 3 2 2 2 2 1 1 1 1 1 1 1 1 1 1 1 1 1 0 0 0 0 0
0 0 0 0 0 0 0 0 0 0 0 0 1 1 1 1 2 2 2 2 2 2 2 2 2 2 1 1 1 1 1 1 1 1 1 1 1 1 0 0 0 0 0 0
0 0 0 0 0 0 0 0 0 0 1 1 1 1 2 2 2 2 2 2 1 1 1 1 1 1 1 1 1 1 1 1 1 1 1 1 1 1 0 0 0 0 0 0
0 0 0 0 0 0 0 0 0 1 1 1 1 2 2 2 2 2 1 1 2 2 1 1 1 1 1 1 1 1 1 1 1 1 1 1 1 1 0 0 0 0 0 0
0 0 0 0 0 1 0 0 0 1 1 1 1 2 2 2 2 1 1 1 2 2 1 1 1 1 1 1 1 1 0 0 1 1 1 1 1 1 0 0 0 0 0 0
0 0 0 0 0 1 0 0 0 1 1 1 1 2 2 2 2 1 1 1 1 1 1 1 1 1 0 0 0 0 0 0 0 1 1 1 1 1 1 0 0 0 0 0
Wind_Speed
1 3 4 8 8 8 7 5 4 4 6 6 7 8 9 9 11 11 10 10 10 10 9 9 8 8 7 6 6 6 5 4 3 2 2 2 1 1 1 1 2 2 2 2
2 4 10 7 5 5 6 5 3 2 4 5 6 6 9 10 13 14 14 12 12 10 8 9 9 9 8 8 6 6 5 5 4 3 2 2 2 1 1 0 1 1 2 2
7 8 6 5 4 5 4 7 7 5 1 2 6 1 5 6 7 9 10 11 11 13 12 11 11 10 9 9 8 7 6 6 5 4 3 2 2 2 1 1 0 0 1 2
5 6 4 4 6 7 6 8 8 7 4 2 5 3 5 7 6 8 10 10 11 12 11 11 10 10 10 10 8 7 7 6 5 5 4 4 3 2 2 1 1 0 1 1
5 5 5 6 7 7 7 6 6 6 5 2 1 3 6 4 8 11 12 13 13 13 13 13 13 12 10 10 9 8 7 6 5 5 5 4 3 2 1 1 1 0 0 1
6 4 5 7 6 6 5 5 4 5 4 1 3 3 5 7 12 12 12 13 13 13 13 12 11 10 9 8 8 8 7 6 5 5 5 5 4 3 2 1 1 0 0 1
4 5 4 4 3 1 5 7 3 3 3 5 3 3 8 9 9 12 13 12 12 12 12 11 11 10 10 9 9 8 8 6 6 6 5 5 5 4 3 2 2 2 1 0
4 6 5 4 8 7 5 10 9 6 4 4 2 3 7 5 5 7 9 10 11 12 11 12 12 11 11 11 10 9 9 7 7 6 5 4 4 3 2 2 2 2 2 1
6 7 5 5 5 9 5 5 8 8 3 1 3 4 5 1 3 5 6 9 11 12 12 11 11 10 10 10 10 10 9 7 7 6 5 4 4 4 3 2 2 1 1 2
6 3 5 4 1 1 7 8 6 6 5 2 3 4 5 5 5 6 7 8 9 10 10 11 11 10 9 9 8 9 8 8 7 6 5 4 3 3 3 3 2 2 1 2
4 3 4 1 4 5 2 3 5 5 6 7 3 7 8 10 9 8 8 7 8 10 10 10 9 10 9 8 8 8 7 7 6 6 5 5 4 3 3 2 2 2 2 2
4 5 3 6 6 5 6 6 7 5 3 5 5 8 5 8 8 9 9 7 7 9 10 9 9 9 8 8 8 8 7 7 6 6 5 5 4 4 4 3 2 2 3 2
4 6 2 6 6 3 2 3 5 6 5 4 5 6 2 4 6 8 9 8 7 7 8 8 9 9 9 8 8 7 7 7 6 6 5 5 5 4 3 3 3 3 3 3
6 5 7 8 7 3 2 2 3 6 4 4 6 5 2 5 7 7 8 9 8 9 9 9 8 7 8 8 8 8 6 6 7 6 6 5 4 4 4 4 4 3 3 3
6 4 3 3 3 1 0 2 2 4 7 7 7 7 8 9 10 10 10 10 10 9 9 10 9 8 8 8 7 7 7 6 7 7 6 5 5 5 4 4 4 4 4 4
4 4 2 1 2 2 2 2 2 3 4 4 6 4 5 6 7 7 9 12 11 10 10 10 9 9 8 8 8 7 7 6 7 7 5 5 5 5 4 4 4 4 4 3
2 4 4 1 2 4 3 4 3 2 2 6 6 6 6 7 8 10 11 11 11 11 9 10 9 8 8 8 8 8 7 7 7 7 5 5 5 5 4 5 4 4 3 3
4 4 4 2 3 2 8 4 3 3 1 3 5 6 8 9 8 6 7 10 10 10 9 9 8 7 6 6 7 7 7 7 7 6 6 5 6 5 4 4 4 3 3 3
6 7 4 4 2 4 6 3 1 4 1 1 6 7 8 8 8 3 1 6 8 9 9 8 8 8 7 8 8 9 7 7 7 6 5 5 6 5 5 5 4 3 3 2
4 6 6 4 3 4 6 6 3 5 1 1 6 9 8 7 5 3 2 5 7 8 8 8 8 8 8 7 9 9 7 6 6 5 5 5 5 6 5 5 4 3 3 3
3 3 4 4 3 5 5 6 2 4 7 4 6 8 7 5 6 6 6 6 8 8 8 8 9 8 7 7 9 9 7 6 5 5 5 4 4 5 5 4 3 3 3 3
3 3 3 4 2 6 5 2 2 6 3 3 5 7 8 7 7 7 8 7 8 8 8 8 7 7 6 7 9 8 6 5 5 5 5 4 4 4 4 4 3 4 4 3
2 4 4 5 6 4 2 0 1 2 4 3 5 7 10 9 8 8 8 7 7 8 7 7 8 7 6 6 7 8 5 5 6 5 5 4 4 3 3 4 4 3 3 3
3 2 3 2 1 2 3 4 4 3 2 3 5 7 10 10 9 9 8 7 7 7 6 6 8 7 6 5 5 6 6 6 6 5 4 4 4 3 2 2 2 3 3 3
3 2 2 1 1 5 6 5 4 5 4 5 5 6 8 10 9 9 8 8 7 7 5 6 7 7 6 5 5 5 5 6 6 5 3 3 3 3 3 2 1 2 2 3
1 2 3 3 3 2 2 3 3 5 5 4 5 6 6 9 9 8 8 7 7 6 5 6 6 6 6 5 5 4 5 6 6 4 3 2 2 3 3 3 2 3 1 1
Wind_Direction
292 100 200 208 187 174 167 160 172 198 184 148 158 167 179 186 177 174 177 176 173 176 174 161 161 159 153 154 152 150 149 159 143 129 125 124 127 111 89 109 129 135 140 133
32 235 222 199 194 160 158 156 188 193 184 145 159 186 195 191 190 184 181 180 178 175 169 167 170 167 166 168 168 161 160 161 161 160 153 148 144 140 152 137 118 139 133 135
201 230 209 190 196 166 190 180 187 192 201 106 127 172 202 205 200 190 187 181 177 177 177 176 176 176 171 173 176 173 171 166 167 156 129 104 82 68 69 63 72 89 123 125
229 231 206 189 209 178 208 207 180 173 138 209 147 176 241 204 203 201 194 189 187 184 179 179 181 180 179 182 178 172 169 167 168 157 147 144 142 151 185 184 168 98 113 130
237 205 191 198 215 192 200 189 172 171 147 129 128 138 259 196 204 210 199 193 191 186 180 182 186 185 181 179 177 173 167 168 168 164 163 155 154 168 170 141 119 88 42 102
233 240 201 202 216 195 158 93 60 56 78 141 229 153 247 210 204 199 199 191 189 186 183 184 184 180 177 176 174 170 166 171 170 165 162 163 165 166 151 151 141 129 57 39
290 283 242 177 168 214 117 101 58 18 18 248 227 168 239 233 204 192 190 188 185 182 178 177 175 175 175 175 175 169 166 173 175 169 171 175 176 171 171 175 168 158 130 72
199 260 238 207 181 182 175 142 155 176 195 266 313 223 254 241 197 186 183 179 176 177 179 178 177 176 176 175 174 169 171 175 176 174 181 182 176 171 175 172 162 164 170 174
182 238 258 229 196 155 159 164 161 135 147 142 270 277 305 22 129 158 165 168 175 177 177 176 174 174 174 174 174 173 171 173 176 179 178 182 176 169 170 164 148 146 157 139
163 214 264 260 56 177 160 150 103 119 149 195 249 240 224 212 181 169 164 171 172 168 169 172 171 172 176 173 170 167 167 173 175 173 173 170 174 169 161 144 142 141 137 123
155 165 292 331 191 195 132 119 119 129 156 154 198 256 222 199 183 172 176 173 163 159 165 168 168 170 170 163 160 163 166 163 161 163 160 155 156 149 140 144 160 150 130 126
164 133 240 258 251 193 163 165 146 153 203 157 160 258 253 184 177 166 167 167 162 158 163 161 161 159 157 156 157 163 165 164 167 163 155 156 153 145 142 146 149 137 136 132
141 120 101 333 336 354 147 175 152 137 126 147 156 252 278 144 151 161 158 157 152 147 145 145 148 154 156 156 156 160 162 162 158 147 141 140 138 139 142 140 135 134 135 123
121 119 157 189 216 225 233 246 143 123 143 184 199 202 199 159 161 164 154 151 147 148 145 142 143 148 149 146 147 147 150 148 144 139 139 142 143 138 138 130 121 124 126 124
104 128 164 201 226 145 176 261 212 169 174 174 202 189 198 188 175 170 155 148 149 149 146 143 143 144 140 137 139 140 137 136 135 134 136 142 136 124 116 113 113 111 111 117
69 123 112 353 360 30 341 310 241 197 166 159 150 200 210 176 154 158 159 155 157 159 152 147 143 144 143 142 139 133 133 135 131 132 136 139 132 125 122 118 114 115 112 109
42 99 95 265 344 34 313 257 208 187 190 155 169 196 155 140 156 170 170 164 162 161 155 151 149 150 148 145 141 139 139 132 129 134 140 137 131 129 132 128 117 121 120 115
135 101 113 111 65 211 248 246 179 154 194 155 148 153 147 153 160 166 160 154 154 153 155 153 149 142 139 133 127 127 127 127 133 140 144 146 141 138 132 127 132 130 123 123
140 129 112 115 142 270 296 308 204 144 317 135 135 129 122 119 94 65 149 147 150 150 148 145 141 134 130 129 127 120 120 127 134 143 150 151 147 140 134 137 147 146 136 131
70 105 112 119 142 220 255 282 279 103 329 263 139 140 139 118 123 201 178 133 123 121 124 127 125 122 127 133 130 122 124 131 144 151 149 146 145 146 151 156 156 149 141 140
47 61 116 135 175 252 263 293 23 130 215 216 156 147 144 150 169 162 135 122 118 116 120 122 123 124 132 135 130 128 131 143 153 145 134 133 142 147 151 149 144 138 132 125
162 150 163 138 162 252 300 358 159 202 188 145 144 143 136 129 119 118 121 119 119 118 117 118 120 120 123 127 128 129 137 143 136 134 132 135 140 144 139 137 138 140 141 140
154 179 174 171 199 240 308 269 225 143 120 125 132 136 137 132 129 127 129 131 128 125 120 119 123 119 117 125 128 130 140 134 125 126 135 136 130 127 135 143 149 149 154 161
333 25 93 79 337 350 10 29 22 43 92 124 127 132 138 136 138 136 136 136 134 128 130 129 127 128 130 133 129 133 138 133 127 129 139 146 140 137 133 134 149 155 167 177
301 358 73 95 345 10 14 15 9 27 58 90 104 120 135 135 137 138 140 142 142 137 141 138 138 142 144 139 131 132 133 131 132 136 141 145 145 144 138 134 148 172 193 194
273 179 148 203 210 153 282 319 12 53 54 83 102 98 118 133 141 139 138 139 137 138 142 141 143 144 144 141 138 137 137 135 137 143 153 159 163 153 144 135 95 42 101 113